TimeCDT,TemperatureF,Dew PointF,Humidity,Sea Level PressureIn,VisibilityMPH,Wind Direction,Wind SpeedMPH,Gust SpeedMPH,PrecipitationIn,Events,Conditions,WindDirDegrees,DateUTC
12:53 AM,33.1,23.0,66,30.02,7.0,North,39.1,47.2,N/A,,Overcast,10,2013-04-23 05:53:00
1:53 AM,32.0,24.1,73,30.04,9.0,North,29.9,43.7,N/A,,Overcast,10,2013-04-23 06:53:00
2:37 AM,30.2,24.8,80,30.14,7.0,North,26.5,38.0,N/A,,Overcast,10,2013-04-23 07:37:00
2:53 AM,30.0,23.0,75,30.06,10.0,North,31.1,41.4,N/A,,Overcast,10,2013-04-23 07:53:00
3:04 AM,30.2,21.2,69,30.15,10.0,North,35.7,42.6,N/A,,Overcast,10,2013-04-23 08:04:00
3:53 AM,30.0,23.0,75,30.05,8.0,North,32.2,40.3,N/A,,Overcast,10,2013-04-23 08:53:00
4:26 AM,30.2,21.2,69,30.16,9.0,North,28.8,36.8,N/A,,Overcast,10,2013-04-23 09:26:00
4:37 AM,30.2,21.2,69,30.15,10.0,North,28.8,36.8,N/A,,Overcast,10,2013-04-23 09:37:00
4:53 AM,30.2,21.2,69,30.15,10.0,North,33.4,41.4,N/A,,Overcast,10,2013-04-23 09:53:00
5:53 AM,28.9,19.9,69,30.07,10.0,NNE,32.2,38.0,N/A,,Overcast,20,2013-04-23 10:53:00
6:28 AM,28.4,19.4,69,30.15,10.0,NNE,29.9,36.8,N/A,,Overcast,20,2013-04-23 11:28:00
6:53 AM,28.9,19.0,67,30.08,10.0,NNE,28.8,39.1,N/A,,Overcast,20,2013-04-23 11:53:00
7:53 AM,28.9,19.0,67,30.15,10.0,North,31.1,38.0,N/A,,Overcast,10,2013-04-23 12:53:00
8:02 AM,30.2,19.4,64,30.17,10.0,North,28.8,38.0,N/A,,Overcast,10,2013-04-23 13:02:00
8:53 AM,28.9,19.0,67,30.20,10.0,North,26.5,-,N/A,,Overcast,10,2013-04-23 13:53:00
9:53 AM,30.0,18.0,61,30.22,10.0,North,27.6,33.4,N/A,,Overcast,10,2013-04-23 14:53:00
10:49 AM,30.2,19.4,64,30.21,10.0,NNE,21.9,28.8,N/A,,Overcast,20,2013-04-23 15:49:00
10:53 AM,30.9,19.9,64,30.23,10.0,NNE,21.9,28.8,N/A,,Overcast,20,2013-04-23 15:53:00
11:53 AM,32.0,19.9,61,30.23,10.0,NNE,21.9,31.1,N/A,,Overcast,20,2013-04-23 16:53:00
12:53 PM,33.1,19.0,56,30.23,10.0,NNE,21.9,-,N/A,,Overcast,20,2013-04-23 17:53:00
1:53 PM,34.0,19.0,54,30.22,10.0,NNE,20.7,27.6,N/A,,Overcast,20,2013-04-23 18:53:00
2:53 PM,33.1,19.0,56,30.22,10.0,NNE,20.7,26.5,N/A,,Overcast,30,2013-04-23 19:53:00
3:53 PM,33.1,19.0,56,30.22,10.0,North,21.9,-,N/A,,Overcast,10,2013-04-23 20:53:00
4:22 PM,35.6,19.4,52,30.16,10.0,NNE,23.0,27.6,N/A,,Overcast,30,2013-04-23 21:22:00
4:53 PM,35.1,18.0,50,30.18,10.0,North,23.0,-,N/A,,Overcast,10,2013-04-23 21:53:00
5:53 PM,35.1,18.0,50,30.20,10.0,North,20.7,-,N/A,,Overcast,10,2013-04-23 22:53:00
6:53 PM,34.0,17.1,50,30.22,10.0,North,16.1,-,N/A,,Mostly Cloudy,10,2013-04-23 23:53:00
7:53 PM,33.1,17.1,52,30.25,10.0,North,16.1,-,N/A,,Overcast,10,2013-04-24 00:53:00
8:53 PM,32.0,19.0,59,30.27,10.0,NNE,13.8,-,N/A,,Overcast,30,2013-04-24 01:53:00
9:53 PM,32.0,18.0,56,30.31,10.0,NNE,9.2,-,N/A,,Overcast,20,2013-04-24 02:53:00
10:53 PM,30.0,18.0,61,30.33,10.0,NNE,8.1,-,N/A,,Clear,20,2013-04-24 03:53:00
11:53 PM,28.0,19.0,69,30.34,10.0,North,4.6,-,N/A,,Clear,360,2013-04-24 04:53:00